Bangor, ME

11:25 AM EDT on October 19, 2019 (GMT -0400)
Bangor International

Weather History for KBGR - August, 2019

Change the Weather History Date:

Sunday, August 4, 2019

  Actual Average Record
Temperature  
Mean Temperature 68 °F 69 °F  
Max Temperature 79 °F 80 °F 94 °F (1938)
Min Temperature 56 °F 58 °F 47 °F (1940)
Degree Days  
Heating Degree Days 0 1  
Month to date heating degree days 0 4  
Since 1 June heating degree days 90 134  
Since 1 July heating degree days 0 27  
Cooling Degree Days 3 4  
Month to date cooling degree days 20 16  
Year to date cooling degree days 246 206  
Since 1 June cooling degree days 246 200  
Growing Degree Days 20 (Base 50)    
Moisture  
Dew Point 53 °F    
Average Humidity 60    
Maximum Humidity 87    
Minimum Humidity 32    
Precipitation  
Precipitation T in 0.11 in 1.45 in (1931)
Month to date precipitation T 0.44  
Year to date precipitation 28.67 23.71  
Snow  
Snow 0.00 in 0.00 in 0.00 in (2002)
Month to date snowfall 0.0 0.0  
Since 1 June snowfall 0.0 0.0  
Since 1 July snowfall 0.0 0.0  
Snow Depth 0.00 in    
Sea Level Pressure  
Sea Level Pressure 29.87 in    
Wind  
Wind Speed 6 mph (NW)    
Max Wind Speed 16 mph    
Max Gust Speed 20 mph    
Visibility 10 miles    
Events Rain    
T = Trace of Precipitation, MM = Missing Value Source: NWS Daily Summary

Daily Weather History Graph

Daily Weather History Graph

Search for Another Location

Airport or City:

Astronomy

Aug. 04, 2019 Rise Set
Actual Time 5:24 AM EDT 7:57 PM EDT
Civil Twilight 4:51 AM EDT 8:30 PM EDT
Nautical Twilight 4:09 AM EDT 9:12 PM EDT
Astronomical Twilight 3:21 AM EDT 9:59 PM EDT
Moon 9:34 AM EDT (8/4) 10:24 PM EDT (8/4)
Length of Visible Light 15h 39m
Length of Day
14h 33m
Waxing Crescent, 18% of the Moon is Illuminated
Aug 4
Waxing Crescent
Aug 7
First Quarter
Aug 15
Full
Aug 23
Last Quarter
Aug 30
New

Hourly Weather History & Observations

Time (EDT) Temp. Dew Point Humidity Pressure Visibility Wind Dir Wind Speed Gust Speed Precip Events Conditions
12:53 AM 64.9 °F 57.9 °F 78% 29.85 in 10.0 mi Calm Calm - N/A   Scattered Clouds
1:53 AM 68.0 °F 57.9 °F 70% 29.85 in 10.0 mi WNW 4.6 mph - N/A   Overcast
2:53 AM 69.1 °F 57.9 °F 68% 29.86 in 10.0 mi WNW 5.8 mph - 0.00 in Rain Light Rain
3:53 AM 64.9 °F 60.1 °F 84% 29.86 in 10.0 mi NW 3.5 mph - 0.00 in   Mostly Cloudy
4:53 AM 64.9 °F 60.1 °F 84% 29.86 in 10.0 mi NW 4.6 mph - N/A   Mostly Cloudy
5:53 AM 64.0 °F 59.0 °F 84% 29.87 in 10.0 mi North 6.9 mph - N/A   Scattered Clouds
6:53 AM 66.0 °F 60.1 °F 81% 29.86 in 10.0 mi NNW 5.8 mph - N/A   Partly Cloudy
7:53 AM 68.0 °F 60.1 °F 76% 29.87 in 10.0 mi NNW 8.1 mph - N/A   Scattered Clouds
8:53 AM 70.0 °F 57.0 °F 63% 29.88 in 10.0 mi North 8.1 mph - N/A   Scattered Clouds
9:53 AM 73.0 °F 55.9 °F 55% 29.88 in 10.0 mi WNW 5.8 mph - N/A   Scattered Clouds
10:53 AM 75.0 °F 54.0 °F 48% 29.87 in 10.0 mi NNW 13.8 mph - N/A   Mostly Cloudy
11:53 AM 75.0 °F 54.0 °F 48% 29.86 in 10.0 mi NNW 10.4 mph - N/A   Mostly Cloudy
12:53 PM 75.9 °F 51.1 °F 42% 29.86 in 10.0 mi Variable 6.9 mph 18.4 mph N/A   Mostly Cloudy
1:53 PM 75.9 °F 48.9 °F 38% 29.85 in 10.0 mi NW 12.7 mph - N/A   Mostly Cloudy
2:53 PM 78.1 °F 48.9 °F 36% 29.84 in 10.0 mi NW 10.4 mph - N/A   Mostly Cloudy
3:53 PM 79.0 °F 48.9 °F 35% 29.83 in 10.0 mi NNW 15.0 mph 19.6 mph N/A   Mostly Cloudy
4:53 PM 78.1 °F 46.0 °F 32% 29.83 in 10.0 mi NNW 12.7 mph 19.6 mph N/A   Scattered Clouds
5:53 PM 75.9 °F 46.9 °F 36% 29.84 in 10.0 mi NNW 13.8 mph - N/A   Partly Cloudy
6:53 PM 73.0 °F 48.0 °F 41% 29.86 in 10.0 mi NNW 15.0 mph - N/A   Partly Cloudy
7:53 PM 69.1 °F 46.9 °F 45% 29.88 in 10.0 mi North 12.7 mph - N/A   Partly Cloudy
8:53 PM 64.0 °F 48.0 °F 56% 29.91 in 10.0 mi NNW 6.9 mph - N/A   Partly Cloudy
9:53 PM 62.1 °F 46.9 °F 58% 29.91 in 10.0 mi WNW 4.6 mph - N/A   Scattered Clouds
10:53 PM 61.0 °F 46.9 °F 60% 29.91 in 10.0 mi West 8.1 mph - N/A   Scattered Clouds
11:53 PM 59.0 °F 46.9 °F 64% 29.91 in 10.0 mi NW 5.8 mph - N/A   Clear